sat.trackr.live / text

‹ back to catalog

ABS-2A (MONGOLSAT-1)

NORAD 41588 · 2016-038A

PAYLOAD ACTIVE UNKNOWN

§ Identity

Operator
Country
ABS
Launch date
2016-06-15
Launch site
AFETR
Launch vehicle
Mass (kg)
RCS (m²)
11.92

Purposes: comms

External: N2YO · Heavens-Above · Gunter

§ Orbital elements

Epoch: 2026-09-20T00:10:09.905376Z

Period
1,436.12 min
Inclination
0.0166°
Eccentricity
0.0001766
Mean motion
1.00269910 rev/d
Perigee alt
35,779.7 km
Apogee alt
35,794.6 km
Semi-major
42,165.3 km
B*
0.0000e+0
RAAN
163.0638°
Arg perigee
316.5523°
Mean anomaly
316.5586°
Rev number
3,765

§ Raw data

ABS-2A (MONGOLSAT-1)1 41588U 16038A   26263.00705909  .00000000  00000+0  00000+0 0  99912 41588   0.0166 163.0638 0001766 316.5523 316.5586  1.00269910 37656

JSON: /api/v1/satellites/41588 · /tle

For live sub-satellite position, see the globe view (requires WebGL).

§ Visibility from observer

Set your observer location to see the next 7 days of passes ≥ 10°. The values pass through the URL so the page stays shareable.

No JS? Fill the form by hand. The geolocation button needs JavaScript.